sat.trackr.live / text

‹ back to catalog

GARAI-A

NORAD 62635 · 2025-009AC

PAYLOAD ACTIVE UNKNOWN

§ Identity

Operator
Country
SPN
Launch date
2025-01-14
Launch site
AFWTR
Launch vehicle
Mass (kg)
RCS (m²)

External: N2YO · Heavens-Above · Gunter

§ Orbital elements

Epoch: 2026-05-25T04:08:43.598112Z

Period
94.80 min
Inclination
97.4001°
Eccentricity
0.0003892
Mean motion
15.18960452 rev/d
Perigee alt
506.3 km
Apogee alt
511.7 km
Semi-major
6,887.1 km
B*
3.1297e-4
RAAN
225.4241°
Arg perigee
74.4703°
Mean anomaly
285.6961°
Rev number
7,528

§ Raw data

GARAI-A1 62635U 25009AC  26145.17272683  .00006476  00000+0  31297-3 0  99992 62635  97.4001 225.4241 0003892  74.4703 285.6961 15.18960452 75282

JSON: /api/v1/satellites/62635 · /tle

For live sub-satellite position, see the globe view (requires WebGL).

§ Visibility from observer

Set your observer location to see the next 7 days of passes ≥ 10°. The values pass through the URL so the page stays shareable.

No JS? Fill the form by hand. The geolocation button needs JavaScript.

§ Radio — SatNOGS DB

ModeDescriptionDownlinkUplink
BPSK S-band telemetry 2.241 GHz

1 transmitter · refreshed weekly from db.satnogs.org